Temperature
22 21 21 21 21 20 20 20 19 19 19 19 18 18 18 18 18 18 18 18 18 18 18 18 18 18 18 18 18 18 18 18 18 18 18 18 18 18 18 18 17 17 17
22 21 21 21 21 20 20 20 19 19 19 19 19 19 18 18 18 18 18 18 18 18 18 18 18 18 18 18 18 18 18 17 18 17 17 17 18 18 18 18 18 17 17
22 21 21 21 21 20 20 20 20 19 19 19 19 19 18 18 18 18 18 18 18 18 18 18 18 18 18 18 18 18 18 18 17 17 17 17 17 17 18 18 18 18 18
22 22 21 21 21 21 20 20 20 19 19 19 19 19 19 18 18 18 18 18 18 18 18 18 18 18 18 18 18 18 18 18 18 18 18 18 17 17 17 17 17 17 17
22 22 22 21 21 21 20 20 20 19 19 19 19 19 19 18 18 18 18 18 18 18 18 18 18 18 18 18 18 18 18 18 18 18 18 18 17 17 17 17 17 17 17
22 22 22 21 21 21 20 20 20 19 19 19 19 18 18 18 18 18 18 18 18 18 18 18 18 18 18 18 18 18 17 17 17 18 18 17 17 17 17 17 17 17 17
22 22 21 21 21 20 20 20 20 19 19 19 19 18 18 18 18 18 18 18 18 18 18 18 18 18 18 18 18 18 18 18 17 17 17 17 17 17 17 17 17 17 17
22 22 22 21 21 20 20 20 20 19 19 19 19 18 18 18 18 18 18 18 18 18 18 18 18 18 18 18 18 18 17 17 17 17 17 17 17 17 17 17 17 16 16
22 21 21 21 21 21 20 20 20 19 19 19 19 18 18 18 18 18 18 18 18 18 18 18 18 18 17 17 17 17 17 17 17 17 17 17 17 17 17 17 17 16 16
21 21 21 21 21 20 20 20 19 19 19 19 19 18 18 18 18 18 18 18 18 18 18 18 17 17 17 17 17 17 17 17 17 17 17 17 17 17 17 17 16 16 16
21 21 21 21 21 20 20 20 19 19 19 19 19 18 18 18 18 18 18 18 18 18 18 17 17 17 17 17 17 17 17 17 17 17 17 17 16 16 16 16 16 16 16
21 21 20 20 20 20 20 20 20 19 19 19 18 18 18 18 18 18 18 17 17 17 17 17 17 17 17 17 17 17 17 17 17 16 16 17 16 16 16 16 16 16 16
21 20 20 20 20 20 19 19 19 19 19 18 18 18 18 18 18 17 17 17 17 17 17 17 17 17 17 16 16 16 16 16 16 16 16 16 16 16 16 16 16 16 16
20 20 20 20 19 19 19 19 19 19 18 18 18 18 17 17 17 17 17 17 17 17 17 17 16 16 16 16 16 16 16 16 16 16 16 16 16 16 16 16 16 15 15
20 20 20 19 19 19 19 19 18 18 18 18 18 17 17 17 17 17 17 17 16 16 16 16 16 16 16 16 16 16 16 16 16 16 16 16 15 15 15 15 15 15 15
20 19 19 19 19 19 18 18 18 18 18 17 17 17 17 17 17 16 16 16 16 16 16 16 15 15 15 15 15 15 15 15 15 15 15 15 15 15 15 15 15 15 15
20 19 19 19 19 18 18 18 18 17 17 17 17 17 17 16 16 16 16 16 16 15 15 15 15 15 15 15 15 15 15 15 15 15 15 15 15 15 15 15 14 14 14
19 19 19 18 18 18 18 18 17 17 17 17 17 16 16 16 16 16 16 16 15 15 15 15 15 15 15 14 15 14 14 14 14 14 14 14 14 14 14 14 14 14 14
19 19 18 18 18 18 18 17 17 17 16 16 16 16 16 16 16 16 16 15 15 15 15 15 14 14 14 14 14 14 14 14 14 14 14 14 14 14 14 14 14 14 14
18 18 18 18 17 17 17 17 17 16 16 16 16 16 15 15 15 15 15 15 15 14 14 14 14 14 14 14 14 14 14 13 13 13 13 13 13 13 13 13 13 13 13
18 18 18 17 17 17 17 16 16 16 16 15 15 15 15 15 15 15 14 14 14 14 14 14 14 13 13 13 13 13 13 13 13 13 13 13 13 13 13 13 13 13 13
17 17 17 17 16 16 16 16 16 16 15 15 15 15 15 15 15 14 14 14 14 14 14 13 13 13 13 13 13 13 13 13 13 13 13 12 12 12 12 12 12 12 12
17 17 16 16 16 16 16 16 15 15 15 15 14 14 14 14 14 14 14 14 14 13 13 13 13 13 13 13 12 12 12 12 12 12 12 12 12 12 12 12 12 12 11
16 16 16 16 15 15 15 15 15 15 15 14 14 14 14 14 14 14 14 14 13 13 13 13 13 13 12 12 12 12 12 12 12 12 12 12 12 11 11 11 11 11 11
16 16 16 15 15 15 15 15 15 15 14 14 14 14 14 14 14 14 13 13 13 13 13 13 13 12 12 12 12 12 12 12 12 12 11 11 11 11 11 11 11 11 10
15 15 15 15 15 15 15 15 14 14 14 14 14 14 14 14 13 13 13 13 13 13 13 13 12 12 12 12 12 12 12 12 12 11 11 11 11 10 10 10 10 10 10
Wind_Speed
8 8 9 9 9 7 7 6 6 5 4 2 2 2 2 1 1 1 3 5 5 5 4 3 2 3 3 3 4 3 3 2 2 2 1 2 1 2 3 3 4 5 7
8 8 8 8 8 8 8 7 7 6 5 3 3 3 3 2 2 1 1 3 4 5 5 4 3 3 3 3 3 3 3 2 2 3 2 1 2 2 2 2 4 4 5
12 10 9 8 8 8 8 8 7 6 6 5 3 2 2 2 1 1 0 0 2 3 3 3 3 3 3 3 3 3 4 3 1 2 3 2 2 2 2 2 2 3 3
10 9 9 9 9 9 8 7 7 7 6 5 5 5 4 3 2 1 1 0 1 2 3 3 3 3 2 3 2 2 3 4 2 1 2 3 4 2 1 2 2 3 4
10 11 11 10 8 8 7 7 7 6 5 5 5 5 4 3 2 1 1 1 1 1 2 3 3 3 2 2 2 2 2 2 2 2 1 1 1 2 2 2 2 2 2
10 10 9 8 6 6 6 6 7 6 5 6 5 5 5 4 3 2 1 1 0 0 1 2 2 2 2 2 2 2 2 2 2 1 2 2 2 2 2 3 3 2 3
9 9 9 9 8 7 6 6 6 5 5 5 5 5 5 5 5 4 3 2 1 1 1 1 1 1 2 2 2 2 2 2 2 2 2 2 2 2 2 3 2 2 2
8 8 9 9 9 8 7 7 7 6 5 5 5 4 5 4 3 3 3 3 2 2 1 1 1 1 2 2 2 1 2 1 2 2 2 1 2 2 2 3 3 1 2
7 7 7 8 8 8 8 8 7 6 5 5 4 4 4 4 3 3 3 2 2 2 2 2 2 1 1 1 2 1 2 1 2 2 2 2 2 1 2 2 3 3 2
6 6 5 6 7 7 7 6 7 6 5 5 4 4 3 3 3 3 3 2 2 2 2 1 1 1 1 1 1 1 1 1 2 2 1 2 2 2 2 2 2 2 3
6 6 5 5 5 5 6 6 6 5 4 4 3 3 3 2 2 3 3 2 2 2 2 2 2 2 1 2 1 2 1 1 2 2 1 2 2 1 1 1 2 2 2
7 6 5 4 4 4 5 6 6 5 5 4 4 3 2 2 2 2 2 2 2 2 2 2 2 2 1 2 2 2 2 2 2 2 2 3 2 1 2 1 2 3 3
6 6 6 5 4 4 4 5 5 5 5 5 4 3 3 2 3 3 2 2 2 2 1 2 2 1 1 1 2 2 2 2 2 2 3 3 2 2 2 2 2 3 3
6 6 6 5 4 3 3 4 3 4 4 4 4 3 3 3 3 3 2 2 3 2 2 2 2 1 1 1 1 2 2 2 2 2 3 3 3 3 3 3 3 3 2
6 7 6 4 3 3 3 3 3 3 4 4 4 4 3 3 3 2 2 2 2 2 2 2 1 0 1 1 1 2 2 2 2 2 3 3 3 3 3 3 2 2 2
7 5 6 5 4 4 3 3 2 2 3 4 3 2 2 2 2 3 2 2 2 2 2 2 1 0 0 0 0 1 1 1 1 2 3 3 2 2 2 3 3 3 3
6 6 5 5 5 5 4 3 2 2 3 3 2 2 2 2 2 2 2 2 2 2 2 2 1 1 1 0 1 2 1 1 1 2 2 2 2 2 3 3 3 3 4
6 6 5 5 4 5 5 4 3 3 2 2 2 2 2 2 2 2 2 1 2 3 2 2 2 1 1 0 0 1 1 1 2 2 2 2 2 2 2 2 3 3 4
4 4 5 5 4 4 4 4 3 2 2 1 1 2 3 2 2 2 2 2 2 1 2 2 2 1 1 1 1 1 0 1 2 3 2 1 2 3 2 1 2 3 4
3 4 4 5 4 3 4 4 3 2 1 1 2 2 2 3 2 2 2 2 2 2 2 1 1 1 1 2 2 1 0 1 2 2 2 1 2 3 2 2 2 3 4
4 4 5 5 4 4 5 4 2 2 2 1 1 1 2 3 3 2 2 2 2 2 2 1 1 1 1 1 1 1 0 1 2 2 2 3 3 4 3 2 2 5 3
3 4 5 4 3 4 5 3 2 2 1 1 1 1 1 2 2 2 2 2 2 2 1 1 1 1 1 1 1 1 1 1 1 2 2 2 3 3 3 2 3 4 2
2 3 4 3 2 2 4 4 2 1 2 1 1 1 1 1 2 3 3 2 2 2 2 2 2 2 2 2 2 2 2 2 1 2 3 3 3 3 3 3 3 2 1
2 2 4 3 2 1 2 3 2 2 2 2 1 1 2 2 2 2 2 3 3 3 3 3 3 2 1 1 1 2 2 2 2 2 2 3 3 2 3 3 3 1 1
1 2 3 3 2 2 2 2 2 2 2 2 2 2 2 2 2 2 2 3 3 5 5 4 4 3 2 3 3 1 1 2 2 1 2 2 3 3 3 3 2 2 2
2 2 2 2 2 2 1 1 1 2 2 2 2 2 2 2 2 2 1 1 1 3 5 5 4 3 4 4 2 2 1 1 1 3 1 1 1 1 2 2 3 2 2
Wind_Direction
172 167 165 161 158 161 162 163 161 164 149 136 131 128 137 152 144 169 181 180 181 180 169 163 157 147 148 161 156 144 135 150 139 105 35 353 311 215 218 201 194 202 210
170 174 169 164 163 168 171 169 171 170 167 165 165 158 157 165 166 182 175 188 183 186 179 167 165 153 146 146 151 147 138 155 143 136 113 12 340 317 233 209 200 204 202
175 177 171 172 170 173 177 176 176 172 170 164 142 123 98 66 56 60 100 195 171 165 164 163 160 150 152 155 162 161 157 167 196 169 154 161 224 287 314 261 224 211 206
173 174 173 176 179 181 179 174 173 172 171 160 149 149 147 156 187 179 161 94 131 140 150 151 149 149 150 154 167 153 160 158 186 228 208 190 172 183 287 324 285 238 224
174 177 177 176 175 173 170 171 164 167 164 156 156 153 151 160 147 132 106 96 78 121 153 155 145 145 152 161 166 147 143 158 176 194 196 191 183 181 185 254 285 297 256
173 174 173 163 161 161 162 164 160 165 165 162 160 159 160 157 146 149 159 172 144 100 136 152 142 150 154 165 181 168 158 173 171 188 188 181 182 191 191 217 242 265 279
167 165 162 165 167 164 164 161 158 160 165 163 165 165 166 167 171 181 181 176 172 203 203 172 155 168 172 165 164 161 176 189 183 207 224 213 213 196 188 189 221 251 282
158 159 163 167 169 169 170 167 168 167 170 165 168 165 162 169 181 188 182 186 191 209 199 177 176 179 184 178 159 172 202 200 206 224 228 232 244 212 186 185 182 238 291
152 155 164 166 166 167 173 175 171 167 174 175 166 163 166 172 182 186 178 178 192 195 178 181 181 191 179 174 170 194 217 199 214 226 221 236 252 226 211 198 183 188 242
152 155 159 166 172 171 168 166 165 173 177 174 172 166 171 177 179 166 171 182 196 196 178 175 174 177 167 169 182 221 235 222 239 227 227 251 243 243 232 210 216 198 207
158 161 158 154 156 157 157 160 163 160 160 168 167 163 165 168 163 171 184 192 194 183 186 192 194 191 192 199 197 236 240 238 263 268 246 261 256 257 256 229 236 234 211
136 131 123 115 121 134 153 160 162 167 167 171 155 155 155 159 170 186 199 190 193 193 190 184 195 204 197 196 200 234 250 240 250 259 255 264 265 270 268 256 251 245 227
124 117 111 113 123 136 147 161 167 170 165 156 152 159 167 175 190 196 197 187 182 176 166 156 180 202 202 198 217 219 244 244 246 244 242 257 259 266 264 262 262 264 263
131 128 126 131 129 122 133 144 152 154 148 150 157 167 186 196 199 194 192 193 180 171 177 179 194 204 201 199 232 232 230 243 259 257 247 246 241 242 243 251 253 256 263
127 139 142 139 129 120 121 122 130 149 149 149 162 186 190 185 185 187 197 192 182 185 173 146 145 181 185 230 229 229 217 232 269 288 275 259 254 248 240 245 252 247 249
145 146 145 142 141 139 137 129 117 128 138 145 167 185 177 175 182 189 190 181 179 176 142 144 147 104 300 43 76 167 212 222 241 282 297 290 289 295 266 247 245 222 230
151 148 156 162 159 156 148 139 141 122 110 126 143 153 161 167 184 181 154 164 180 163 155 166 165 182 241 94 109 104 170 229 261 264 281 297 301 299 286 288 288 275 253
150 154 161 163 160 151 148 142 135 129 135 147 155 163 151 166 169 146 152 166 158 162 168 178 190 197 248 332 25 124 213 247 264 258 241 249 282 301 285 279 290 289 289
149 156 163 162 154 148 151 140 131 126 124 161 186 181 165 156 158 167 183 184 162 171 184 181 183 198 266 333 349 53 311 288 285 283 267 235 259 296 302 275 281 295 303
129 127 128 123 126 132 125 117 118 123 163 219 213 193 170 166 181 190 194 195 171 190 198 215 215 206 262 357 15 16 290 293 291 295 290 282 277 287 289 240 248 271 284
124 117 118 123 136 133 121 124 134 177 209 213 212 200 191 185 187 187 195 190 183 181 188 206 243 230 258 309 351 16 223 248 279 296 304 307 318 311 294 246 238 254 263
102 117 123 131 140 133 129 137 185 217 186 166 175 210 228 195 169 163 179 184 178 177 192 209 281 280 283 299 302 334 329 254 234 268 281 296 315 315 317 296 282 288 302
102 128 133 134 133 140 146 162 214 203 153 147 192 232 240 229 201 184 190 194 188 190 209 212 237 279 304 317 329 341 332 341 264 268 290 311 320 320 322 332 335 341 354
109 128 129 136 153 169 171 185 187 166 157 176 221 243 226 228 231 207 193 192 202 201 206 211 219 235 262 300 327 340 335 334 339 328 328 341 345 351 350 354 355 3 320
115 134 145 157 182 189 200 205 178 155 173 199 216 230 237 224 225 229 217 201 207 195 193 205 199 202 236 251 224 200 276 269 273 351 32 31 23 12 360 350 338 340 353
135 124 146 172 190 176 199 219 179 165 180 221 231 227 222 212 203 204 283 30 177 185 175 170 169 203 217 218 214 218 236 236 125 106 65 358 348 340 335 330 330 336 332
Height
1522 1523 1524 1525 1525 1526 1526 1526 1526 1526 1526 1526 1527 1527 1528 1529 1530 1530 1531 1531 1531 1531 1532 1532 1532 1533 1534 1535 1536 1537 1538 1539 1540 1541 1542 1543 1543 1544 1544 1545 1545 1545 1546
1521 1522 1523 1524 1524 1525 1525 1526 1526 1526 1526 1527 1528 1529 1529 1530 1531 1531 1532 1532 1532 1532 1532 1532 1533 1533 1534 1535 1535 1536 1537 1539 1540 1540 1541 1541 1543 1542 1543 1543 1543 1544 1544
1518 1520 1522 1523 1524 1524 1525 1525 1525 1526 1526 1527 1528 1529 1530 1530 1531 1531 1532 1532 1532 1533 1533 1533 1533 1533 1534 1534 1535 1536 1537 1537 1539 1540 1541 1541 1540 1541 1542 1542 1542 1542 1542
1517 1518 1520 1522 1523 1523 1524 1524 1525 1525 1526 1527 1528 1528 1529 1530 1530 1531 1532 1532 1533 1533 1533 1533 1533 1533 1534 1534 1535 1536 1536 1537 1537 1538 1539 1540 1539 1540 1540 1540 1540 1540 1540
1515 1517 1518 1520 1521 1522 1523 1524 1524 1525 1527 1527 1528 1529 1529 1529 1531 1531 1532 1532 1532 1532 1532 1532 1532 1533 1533 1534 1534 1535 1535 1536 1536 1536 1537 1537 1538 1538 1538 1538 1538 1538 1538
1514 1516 1518 1519 1520 1522 1523 1523 1524 1525 1526 1527 1528 1529 1528 1529 1530 1531 1531 1531 1532 1532 1532 1532 1532 1532 1533 1533 1533 1534 1534 1534 1535 1535 1535 1535 1536 1536 1536 1536 1536 1536 1536
1513 1514 1516 1518 1519 1520 1521 1522 1523 1524 1525 1526 1527 1527 1528 1529 1529 1530 1530 1531 1531 1531 1531 1531 1531 1531 1532 1532 1532 1532 1532 1532 1533 1533 1533 1534 1534 1534 1534 1534 1533 1533 1533
1511 1512 1514 1515 1517 1518 1520 1521 1522 1523 1524 1525 1526 1526 1527 1528 1528 1529 1529 1530 1530 1530 1531 1530 1530 1530 1531 1531 1531 1531 1531 1531 1531 1531 1531 1531 1532 1532 1532 1532 1531 1531 1530
1510 1512 1513 1514 1515 1517 1518 1519 1521 1522 1523 1524 1525 1525 1526 1526 1527 1528 1528 1529 1529 1529 1529 1529 1529 1529 1529 1529 1530 1529 1529 1529 1529 1529 1529 1529 1529 1529 1529 1529 1529 1529 1527
1510 1511 1512 1513 1514 1515 1516 1518 1520 1520 1522 1523 1523 1524 1524 1525 1525 1526 1526 1527 1527 1528 1528 1527 1528 1528 1527 1528 1528 1528 1528 1528 1527 1528 1528 1527 1527 1527 1527 1527 1527 1527 1526
1509 1510 1511 1512 1513 1515 1515 1517 1518 1519 1520 1521 1522 1522 1523 1523 1523 1523 1524 1524 1525 1526 1526 1526 1526 1526 1526 1526 1526 1526 1526 1525 1525 1525 1525 1525 1525 1524 1524 1524 1524 1524 1524
1508 1510 1511 1512 1513 1514 1514 1515 1516 1517 1518 1519 1520 1521 1521 1521 1521 1521 1522 1523 1523 1523 1524 1524 1524 1524 1524 1524 1524 1523 1523 1523 1523 1522 1522 1522 1522 1522 1522 1521 1521 1520 1520
1509 1510 1511 1512 1513 1513 1514 1515 1515 1516 1516 1517 1518 1519 1519 1519 1519 1519 1520 1520 1520 1521 1521 1521 1521 1521 1521 1521 1521 1521 1520 1520 1520 1520 1519 1519 1519 1519 1519 1518 1518 1517 1517
1508 1509 1511 1512 1512 1513 1513 1514 1514 1515 1516 1517 1517 1517 1517 1517 1517 1517 1518 1518 1518 1518 1518 1518 1519 1519 1519 1519 1519 1518 1517 1517 1517 1517 1517 1516 1516 1516 1516 1515 1515 1514 1513
1507 1508 1509 1510 1511 1512 1512 1512 1513 1514 1515 1515 1515 1515 1515 1515 1516 1515 1515 1516 1516 1516 1516 1516 1516 1516 1516 1516 1515 1515 1515 1514 1514 1514 1514 1513 1513 1513 1513 1512 1511 1511 1510
1506 1508 1509 1509 1510 1510 1511 1511 1512 1513 1513 1513 1513 1514 1514 1514 1513 1513 1513 1513 1513 1514 1513 1513 1513 1513 1513 1513 1512 1512 1512 1511 1511 1510 1510 1510 1510 1510 1510 1509 1508 1508 1507
1505 1507 1508 1508 1508 1509 1509 1510 1511 1511 1511 1511 1511 1511 1511 1511 1511 1511 1511 1511 1511 1511 1511 1511 1511 1511 1510 1510 1510 1509 1509 1508 1507 1507 1507 1507 1506 1506 1506 1505 1505 1504 1504
1504 1506 1507 1507 1507 1508 1508 1509 1509 1510 1509 1509 1508 1508 1508 1508 1509 1508 1508 1508 1507 1507 1508 1508 1508 1508 1508 1508 1507 1507 1507 1506 1505 1504 1504 1503 1503 1503 1502 1502 1501 1500 1500
1503 1504 1505 1506 1506 1506 1506 1507 1507 1507 1507 1506 1505 1505 1505 1505 1505 1506 1505 1505 1505 1505 1505 1506 1506 1505 1505 1506 1506 1505 1504 1503 1502 1502 1501 1501 1500 1499 1499 1498 1497 1497 1496
1502 1503 1504 1504 1505 1504 1505 1505 1505 1505 1505 1505 1504 1503 1503 1503 1503 1503 1503 1503 1503 1503 1503 1503 1504 1504 1503 1503 1503 1503 1502 1501 1500 1499 1498 1498 1497 1496 1496 1495 1494 1493 1492
1501 1502 1502 1502 1503 1503 1503 1503 1503 1503 1503 1503 1502 1502 1502 1501 1501 1501 1501 1501 1501 1501 1501 1501 1502 1502 1502 1501 1501 1501 1500 1499 1498 1496 1496 1495 1495 1493 1493 1492 1491 1490 1490
1500 1500 1500 1501 1501 1501 1502 1502 1501 1501 1502 1502 1501 1500 1500 1499 1499 1499 1499 1500 1500 1500 1499 1499 1499 1500 1500 1499 1499 1498 1498 1497 1496 1495 1494 1493 1492 1491 1490 1489 1488 1488 1487
1499 1499 1499 1499 1500 1500 1500 1500 1500 1500 1500 1499 1499 1498 1498 1498 1497 1497 1497 1497 1498 1498 1498 1497 1497 1497 1497 1497 1497 1496 1496 1495 1494 1493 1492 1491 1490 1489 1488 1487 1486 1484 1483
1498 1498 1498 1498 1498 1498 1498 1498 1498 1498 1498 1497 1497 1497 1496 1496 1496 1496 1496 1496 1496 1496 1496 1495 1495 1495 1495 1495 1495 1494 1493 1493 1492 1491 1490 1489 1488 1487 1486 1485 1484 1482 1481
1497 1497 1497 1497 1496 1497 1496 1496 1496 1496 1496 1495 1495 1494 1494 1494 1494 1494 1494 1494 1494 1494 1494 1493 1493 1493 1492 1492 1492 1491 1491 1490 1489 1488 1487 1486 1485 1484 1483 1482 1481 1480 1479
1495 1495 1496 1495 1495 1495 1495 1495 1494 1494 1494 1493 1493 1492 1492 1492 1492 1492 1492 1492 1492 1492 1492 1492 1492 1491 1491 1490 1490 1489 1488 1488 1487 1486 1484 1483 1482 1481 1481 1480 1479 1478 1477